Regional Weather Roundup
Issued by NWS Little Rock, AR

Home | Current Version | Previous Version | Text Only | Print | Product List | Glossary On
Versions: 1 2 3 4 5 6 7 8 9 10 11 12 13 14 15 16 17 18 19 20 21 22 23 24 25 26 27 28 29 30 31 32 33 34 35 36 37 38 39 40 41 42 43 44 45 46 47 48 49 50
000
ASUS44 KLZK 150405
RWRLZK

WEATHER ROUNDUP FOR ARKANSAS
NATIONAL WEATHER SERVICE LITTLE ROCK AR
1100 PM CDT SUN SEP 14 2014

NOTE: "FAIR" INDICATES FEW OR NO CLOUDS BELOW 12,000 FEET WITH NO
SIGNIFICANT WEATHER AND/OR OBSTRUCTIONS TO VISIBILITY.

ARZ001-003-010-029-150500-
NORTHWEST ARKANSAS

CITY           SKY/WX    TMP DP  RH WIND       PRES   REMARKS
FAYETTEVILLE   MOCLDY    63  60  90 CALM      30.17F
FORT SMITH     CLOUDY    70  60  70 E6        30.15S
HARRISON       MOCLDY    63  59  87 S5        30.19R
BENTONVILLE    MOCLDY    64  55  72 S6        30.17F
ROGERS         MOCLDY    65  56  72 SE8       30.18F
SILOAM SPGS    MOCLDY    64  55  72 SE5       30.18R
HIGHFILL       MOCLDY    64  57  78 S5        30.17S
$$

ARZ004-005-016-150500-
NORTH CENTRAL ARKANSAS

CITY           SKY/WX    TMP DP  RH WIND       PRES   REMARKS
BATESVILLE     PTCLDY    63  54  72 CALM      30.19F
FLIPPIN        MOCLDY    63  54  72 CALM      30.18S
MTN HOME       MOCLDY    64  54  69 SE6       30.18S
$$

ARZ040-041-150500-
WEST CENTRAL ARKANSAS

CITY           SKY/WX    TMP DP  RH WIND       PRES   REMARKS
MENA           CLOUDY    68  66  94 CALM      30.18S
MOUNT IDA      MOCLDY    65  63  93 CALM      30.16S
$$

ARZ009-017-025-026-028-150500-
NORTHEAST ARKANSAS

CITY           SKY/WX    TMP DP  RH WIND       PRES   REMARKS
CORNING          N/A     59  57  94 CALM      30.20S
JONESBORO      PTCLDY    60  56  86 CALM      30.19S
NEWPORT        CLEAR     62  59  90 NE3       30.20S
WALNUT RIDGE   MOCLDY    59  48  67 CALM      30.19R
BLYTHEVILLE    PTCLDY    62  57  83 CALM      30.19S
$$

ARZ022-023-033-042-044-150500-
CENTRAL ARKANSAS

CITY           SKY/WX    TMP DP  RH WIND       PRES   REMARKS
LITTLE ROCK    PTCLDY    67  59  75 CALM      30.18S
N LITTLE ROCK  PTCLDY    66  60  80 E5        30.18S
JACKSONVILLE   CLEAR     63  60  90 CALM      30.18S
SEARCY         PTCLDY    62  57  83 NE3       30.19F
HOT SPRINGS    PTCLDY    67  60  78 E6        30.18S
RUSSELLVILLE   CLEAR     65  60  84 CALM      30.17S
CLINTON        FAIR      61  59  94 CALM      30.20S
$$

ARZ036-150500-
EAST ARKANSAS

CITY           SKY/WX    TMP DP  RH WIND       PRES   REMARKS
WEST MEMPHIS   CLEAR     62  61  96 CALM      30.18R
$$

ARZ050-053-066-070-073-150500-
SOUTHWEST ARKANSAS

CITY           SKY/WX    TMP DP  RH WIND       PRES   REMARKS
ARKADELPHIA    FAIR      66  65  97 CALM      30.17S
CAMDEN         CLEAR     64  63  94 CALM      30.16S FOG
TEXARKANA      PTCLDY    68  65  90 CALM      30.16S
EL DORADO      CLEAR     68  64  87 NE3       30.16S
DE QUEEN       MOCLDY    69  67  93 CALM      30.15R
$$

ARZ056-057-069-150500-
SOUTHEAST ARKANSAS

CITY           SKY/WX    TMP DP  RH WIND       PRES   REMARKS
PINE BLUFF     PTCLDY    66  59  78 N3        30.18S
STUTTGART      PTCLDY    64  57  77 NE6       30.18F
MONTICELLO     CLEAR     68  61  78 CALM      30.16S

$$




USA.gov is the U.S. government's official web portal to all federal, state and local government web resources and services.